Location: Arlington
(40.6323°N, 74.1651°W)
Time: 23:56:10
(UTC+00:00)

COSMOS 2455 - Pass Details

Date: 22 November 2019
Orbit: 902 x 908 km, 67.1° (Epoch: 07 December)

Event Time Altitude Azimuth Distance (km) Brightness Sun altitude
Rises 23:23:29 0° 199° (SSW) 3,517 6.3 -20.5°
Reaches altitude 10° 23:25:59 10° 197° (SSW) 2,580 5.5 -21.0°
Maximum altitude 23:31:55 69° 115° (ESE) 967 2.7 -22.1°
Enters shadow 23:34:09 40° 45° (NE) 1,322 3.3 -22.5°
